Location: Saint-Gilles les Bains
(21.0539°S, 55.2287°E)
Time: 08:04:52
(UTC+04:00)

Hubble Space Telescope - Pass Details

Date: 25 June 2021
Orbit: 535 x 539 km, 28.5° (Epoch: 28 July)

Event Time Altitude Azimuth Distance (km) Brightness Sun altitude
Exits shadow 06:18:19 - 287° (WNW) 2,161 3.4 -8.9°
Reaches altitude 10° 06:20:05 10° 306° (NW) 1,787 3.1 -8.6°
Maximum altitude 06:21:42 12° 329° (NNW) 1,659 3.2 -8.2°
Drops below altitude 10° 06:23:19 10° 352° (N) 1,782 3.6 -7.9°
Sets 06:26:52 0° 24° (NNE) 2,666 5.1 -7.1°
